Regional Weather Roundup
Issued by NWS

Home | Current Version | Previous Version | Text Only | Print | Product List | Glossary On
Versions: 1 2 3 4 5 6 7 8 9 10 11 12 13 14 15 16 17 18 19 20 21 22 23 24 25 26 27 28 29 30 31 32 33 34 35 36 37 38 39 40 41 42 43 44 45 46 47 48 49 50
983
ASUS43 KMKX 211321
RWRWI

WISCONSIN REGIONAL WEATHER ROUNDUP
NATIONAL WEATHER SERVICE MILWAUKEE/SULLIVAN WI
700 AM CST TUE FEB 21 2017

NOTE: "FAIR" INDICATES FEW OR NO CLOUDS BELOW 12,000 FEET WITH NO
SIGNIFICANT WEATHER AND/OR OBSTRUCTIONS TO VISIBILITY.

WIZ001-002-006>008-014>016-023>028-211400-
NORTHWEST WISCONSIN

CITY           SKY/WX    TMP DP  RH WIND       PRES   REMARKS
SUPERIOR ARPT  CLOUDY    35  33  94 SW9G17    29.83S WCI  27
ASHLAND        PTCLDY    35  33  92 SW12      29.83R WCI  27
HAYWARD        CLOUDY    36  33  89 SW8       29.86R WCI  30
SIREN          CLOUDY    35  35  98 SW7       29.88R FOG     WCI  29
CUMBERLAND     FOG       32  32 100 SW7       29.88R VSB 1/2 WCI  26
RICE LAKE      CLOUDY    35  34  97 SW5       29.91R FOG     WCI  31
CHETEK         CLOUDY    35  35  99 W3        29.90R
LADYSMITH      CLOUDY    37  35  95 SW3       29.90R
EAU CLAIRE     CLOUDY    37  35  92 SW7       29.90R WCI  32
MENOMONIE      CLOUDY    37  35  95 SW3       29.91S FOG
NEW RICHMOND   FOG       34  34 100 SW6       29.90R VSB<1/4 WCI  29
OSCEOLA        NOT AVBL
$$

WIZ003>005-009-010-017-018-211400-
NORTH CENTRAL WISCONSIN

CITY           SKY/WX    TMP DP  RH WIND       PRES   REMARKS
MANITOWISH WTR MOCLDY    34  34 100 SW7       29.82S WCI  28
ARBOR VITAE    CLEAR     37  35  95 CALM      29.83R
WOODRUFF       CLEAR     37  35  95 CALM      29.83R
RHINELANDER    MOCLDY    38  37  97 W12       29.84R WCI  30
EAGLE RIVER    CLEAR     37  37  99 W8        29.82R WCI  31
LAND O LAKES   CLEAR     37  36  95 W6        29.82S WCI  33
PHILLIPS       CLOUDY    36  36 100 W6        29.85R WCI  31
TOMAHAWK       PTCLDY    36  35  94 W5        29.85S WCI  32
MEDFORD        CLOUDY    36  34  94 W8        29.88R WCI  29
MERRILL        NOT AVBL
$$

WIZ029-030-035-036-043>047-211400-
CENTRAL WISCONSIN

CITY           SKY/WX    TMP DP  RH WIND       PRES   REMARKS
WAUSAU         CLOUDY    39  36  89 W9        29.87R WCI  33
MOSINEE        NOT AVBL
MARSHFIELD     CLOUDY    38  36  92 W6        29.89R WCI  33
STEVENS POINT  CLOUDY    39  37  93 W8        29.90R WCI  34
WAUPACA        MOCLDY    44  40  85 W8        29.90R
WAUTOMA        CLOUDY    44  41  89 W9        29.91R
WISC RAPIDS    CLOUDY    42  40  92 W5        29.91R
CAMP DOUGLAS   CLOUDY    41  37  87 W7        29.92R
$$

WIZ011>013-019>022-031-037>040-048>050-211400-
NORTHEAST WISCONSIN

CITY           SKY/WX    TMP DP  RH WIND       PRES   REMARKS
ANTIGO         CLOUDY    38  38  97 W13       29.85R WCI  31
SHAWANO        CLEAR     45  41  85 W6        29.87R
OCONTO         CLEAR     44  43  93 W9        29.85R
STURGEON BAY   CLEAR     47  45  93 W9        29.83R
GREEN BAY      CLEAR     46  44  93 W10       29.86R
MANITOWOC      CLOUDY    49  45  86 MISG      29.86R
APPLETON       MOCLDY    45  43  93 W13       29.85R
CLINTONVILLE   PTCLDY    43  39  87 W7        29.88R
OSHKOSH        CLOUDY    46  42  86 W6        29.88R
$$

WIZ032>034-041-042-053>061-211400-
SOUTHWEST WISCONSIN

CITY           SKY/WX    TMP DP  RH WIND       PRES   REMARKS
LA CROSSE      CLOUDY    38  36  92 CALM      29.93S
SPARTA         CLOUDY    40  39  97 CALM      29.94R
VIROQUA          N/A     36  36 100 W3        29.93R VSB 1/4
BOSCOBEL       FOG       35  34  96 CALM      29.94R VSB 1/4
PRAIRIE DU CHI FOG       35  34  96 CALM      29.95S VSB 3/4
PLATTEVILLE    CLEAR     38  38 100 NW6       29.94R WCI  33
$$

WIZ056-057-062-063-064-067-068-211400-
SOUTH CENTRAL WISCONSIN

CITY           SKY/WX    TMP DP  RH WIND       PRES   REMARKS
REEDSBURG      CLOUDY    42  42 100 NW3       29.92S
BARABOO/DELLS  MOCLDY    41  40  97 NW7       29.92R
LONE ROCK      PTCLDY    39  38  96 W3        29.94R FOG
MINERAL POINT  FOG       39  39 100 NW6       29.92S VSB 1/4 WCI  35
MADISON        MOCLDY    44  43  96 CALM      29.90R
MIDDLETON        N/A     44  44 100 W7        29.92S
WATERTOWN      CLOUDY    47  47 100 W7        29.90R
MONROE         MOCLDY    43  43 100 W8        29.92R
JANESVILLE     PTCLDY    48  48 100 W6        29.91R
$$

WIZ051-052-058>065-066-070>072-211400-
SOUTHEAST WISCONSIN

CITY           SKY/WX    TMP DP  RH WIND       PRES   REMARKS
MILWAUKEE      CLOUDY    55  52  89 W7        29.90R FOG
WAUKESHA       CLOUDY    52  52 100 W8        29.89R FOG
MILWAUKEE/TIMM CLOUDY    54  50  87 W10       29.89R
RACINE         CLOUDY    55  52  89 W9        29.90S
KENOSHA        CLOUDY    54  52  93 SW13      29.89S FOG
FOND DU LAC    CLOUDY    46  40  79 W10       29.89R
SHEBOYGAN      MOCLDY    48  43  82 W8        29.88R
WEST BEND      CLOUDY    46  45  93 W7        29.89R
JUNEAU         PTCLDY    44  43  95 W3        29.91R
$$

LSZ147-162-211400-
LAKE SUPERIOR

STATION/POSITION TIME  TEMP    WIND        PRES    WAVE
                       AIR SEA DIR/SP/G            HT/PER
                 (UTC) (F)     (DEG/KT/KT) (MB)    (FT/S)
DEVILS ISLAND    1300   35     240/ 19/ 22 1009.7R
PORT WING        1240   35     220/  4/  5 1010.2S
SAXON HARBOR     1230   39     200/ 10/ 17 1009.1F
$$

LMZ867-665-643>646-211400-
LAKE MICHIGAN

STATION/POSITION TIME  TEMP    WIND        PRES    WAVE
                       AIR SEA DIR/SP/G            HT/PER
                 (UTC) (F)     (DEG/KT/KT) (MB)    (FT/S)
CHAMBERS ISLAND  1240   48     200/  7/ 13 1008.8R
NORTHPORT PIER   1240   50     250/  5/ 11 1008.5S
SISTER BAY       1220   46     260/ 11/ 12   N/A
KEWAUNEE LAKESHO 1254   48     280/  6/ 11 1010.1R
SHEBOYGAN LAKESH 1300   50     280/ 11/ 14 1011.7R
PORT WASHINGTON  1230   55     260/  3/ 10 1011.9F
MILWAUKEE LAKESH 1250   56     250/  9/ 11   N/A
KENOSHA   LAKESH 1300   55     220/  9/ 13 1012.5
$$

TC  - TEMPERATURE IN CELSIUS
VSB - VISIBILITY IN STATUTE MILES
WCI - WIND CHILL INDEX
HX  - HEAT INDEX





USA.gov is the U.S. government's official web portal to all federal, state and local government web resources and services.